#timestamp,LO_Frequency,Hit,StdDev 
1710943215.8,286046998.6,N
1710943235.7,286046999.3,N
1710943255.5,286046998.7,N
1710943275.3,286047001.2,N
1710943295.2,286047000.4,N
1710943315.0,286047000.3,N
1710943315.9,286047000.3,N
1710943335.8,286047002.3,N
1710943355.6,286047001.5,N
1710943375.4,286047001.4,N
1710943395.3,286047002.1,N
1710943415.1,286047001.5,N
1710943435.8,286047000.1,N
1710943455.7,286047001.7,N
1710943475.5,286047001.4,N
1710943495.4,286047004.3,Y
1710943515.2,286047002.0,P
1710943535.0,286047002.1,N
1710943535.9,286047002.1,N
1710943555.8,286047001.6,N
1710943575.6,286047001.9,N
1710943595.5,286047002.1,N
1710943615.3,286047002.8,Y
1710943635.1,286046998.8,P
1710943655.9,286046999.3,N
1710943675.7,286046999.2,N
1710943695.6,286046999.3,N
1710943715.4,286046998.8,N
1710943735.2,286046999.4,N
1710943755.1,286046998.1,N
1710943756.0,286046998.1,N
1710943775.8,286046998.5,N
1710943795.6,286046998.2,N
1710943815.5,286046998.7,N
1710943835.3,286046998.8,N
1710943855.2,286046996.8,Y
1710943875.9,286047001.1,P
1710943895.7,286047000.6,N
1710943915.6,286047002.3,N
1710943935.4,286047002.3,N
1710943955.3,286047004.4,Y
1710943975.1,286047002.8,P
1710943976.0,286047002.8,P
1710943995.8,286047000.2,N
1710944015.7,286047000.5,N
1710944035.5,286047001.2,N
1710944055.3,286046998.1,N
1710944075.2,286047001.1,N
1710944095.0,286046998.7,N
1710944095.9,286046998.7,N
1710944115.8,286046998.9,N
1710944135.6,286046999.0,N
1710944155.4,286046999.6,N
1710944175.3,286046998.5,N
1710944195.1,286046998.6,N
1710944215.8,286047001.2,N
1710944235.7,286047001.2,N
1710944255.5,286047001.1,N
1710944275.4,286046999.0,N
1710944295.2,286046998.7,N
1710944315.0,286046998.4,N
1710944315.9,286046998.4,N
1710944335.8,286047000.7,N
1710944355.6,286047000.8,N
1710944375.5,286047000.7,N
1710944395.3,286046999.7,N
1710944415.1,286047002.8,N
1710944435.9,286046999.9,N
1710944455.7,286047001.2,N
1710944475.5,286046999.2,N
1710944495.4,286046999.5,N
1710944515.2,286047001.2,N
1710944535.1,286047000.8,N
1710944536.0,286047000.8,N
1710944555.8,286047000.5,N
1710944575.7,286046998.3,N
1710944595.5,286047000.5,N
1710944615.3,286047001.0,N
1710944635.2,286047000.6,N
1710944655.0,286046998.7,N
1710944655.9,286046998.7,N
1710944675.7,286046996.7,N
1710944695.6,286046996.6,N
1710944715.4,286046997.1,N
1710944735.3,286046997.0,N
1710944755.1,286046996.8,N
1710944775.8,286046996.9,N
1710944795.7,286046998.0,N
1710944815.5,286046997.1,N
1710944835.4,286046997.3,N
1710944855.2,286046999.0,N
1710944875.0,286046998.7,N
1710944875.9,286046998.7,N
1710944895.8,286046998.6,N
1710944915.6,286047000.3,N
1710944935.4,286046998.7,N
1710944955.3,286046998.7,N
1710944975.1,286046999.6,N
1710944995.9,286046996.5,N
1710945015.7,286046999.5,N
1710945035.5,286046996.9,N
1710945055.4,286046996.5,N
1710945075.2,286046996.5,N
1710945095.0,286047001.2,N
1710945095.9,286047001.2,N
1710945115.8,286047001.2,N
1710945135.6,286046998.2,N
1710945155.5,286046999.9,N
1710945175.3,286047000.6,N
1710945195.1,286047000.4,N
1710945215.9,286047002.3,N
1710945235.7,286047001.9,N
1710945255.5,286047002.6,N
1710945275.4,286046999.7,N
1710945295.2,286047000.3,N
1710945315.1,286047001.0,N
1710945316.0,286047001.0,N
1710945335.8,286047000.5,N
1710945355.6,286047001.2,N
1710945375.5,286046998.5,N
1710945395.3,286046998.6,N
1710945415.2,286046998.4,N
1710945435.9,286046996.6,N
1710945455.7,286046996.6,N
1710945475.6,286046998.3,N
1710945495.4,286046999.4,N
1710945515.2,286046999.4,N
1710945535.1,286046999.4,N
1710945536.0,286046999.4,N
1710945555.8,286046998.6,N
1710945575.7,286046999.2,N
1710945595.5,286046998.7,N
1710945615.3,286046999.0,N
1710945635.2,286046998.7,N
1710945655.0,286046999.3,N
1710945655.9,286046999.3,N
1710945675.7,286046998.9,N
1710945695.6,286046998.2,N
1710945715.4,286047001.1,N
1710945735.3,286046999.3,N
1710945755.1,286047001.2,N
1710945775.8,286046998.8,N
1710945795.7,286047000.8,N
1710945815.5,286047001.2,N
1710945835.4,286047000.9,N
1710945855.2,286047000.4,N
1710945875.0,286047000.4,N
1710945876.0,286047000.4,N
1710945895.8,286047000.0,N
1710945915.6,286047001.0,N
1710945935.5,286046998.3,N
1710945955.3,286047001.1,N
1710945975.2,286046998.6,N
1710945995.9,286046998.5,N
1710946015.7,286047000.1,N
1710946035.6,286046998.2,N
1710946055.4,286046999.7,N
1710946075.3,286047000.0,N
1710946095.1,286047000.0,N
1710946096.0,286047000.0,N
1710946115.8,286047000.6,N
1710946135.7,286047000.1,N
1710946155.5,286047002.3,N
1710946175.4,286047000.1,N
1710946195.2,286047002.1,N
1710946215.0,286047000.2,N
1710946215.9,286047000.2,N
1710946235.8,286046999.7,N
1710946255.6,286046999.9,N
1710946275.4,286047001.3,N
1710946295.3,286047004.3,Y
1710946315.1,286047001.9,P
1710946335.9,286047002.6,P
1710946355.7,286046999.8,N
1710946375.5,286047002.5,N
1710946395.4,286047002.2,N
1710946415.2,286046999.7,N
1710946435.0,286047002.4,N
1710946436.0,286047002.4,N
1710946455.8,286047002.4,N
1710946475.6,286047002.0,N
1710946495.5,286047001.6,N
1710946515.3,286047001.3,N
1710946535.2,286046999.8,N
1710946555.9,286047000.1,N
1710946575.7,286047000.1,N
1710946595.6,286047000.4,N
1710946615.4,286047002.7,N
1710946635.2,286046999.7,N
1710946655.1,286047000.4,N
1710946656.0,286047000.4,N
1710946675.8,286047002.6,N
1710946695.7,286047001.7,N
1710946715.5,286047002.3,N
1710946735.3,286047002.2,N
1710946755.2,286047002.8,N
1710946775.0,286047002.0,N
1710946775.9,286047002.0,N
1710946795.8,286047001.5,N
